CZ-3B R/B (54879 NORAD) Tracking and Keplerian Element Data

This shows tracking and keplerian element data for the satellite.

Feedback or suggestion? Click here.




ElementValue
Catalog54879
NameCZ-3B R/B
Epoch Orbit32
Epoch Day13.32689884
Epoch Year2023
RAAN115.3142
Inclination51.2619
Eccentricity0.7524756
Argument of Perigee228.4523
Mean Anonmoly37.3788
Mean Motion1.99295743
Decay Rate0.00010105
L11 54879U 22178B 23013.32689884 .00010105 00000+0 19116-2 0 9996
L22 54879 51.2619 115.3142 7524756 228.4523 37.3788 1.99295743 328



Live tracking and technical data element details for CZ-3B R/B (NORAD 54879). CZ-3B R/B can be tracked NOW for your location showing map with azimuth and elevation plus other details from your city location.







IsCatalogInMostPopularTable: catalog: 54879, numindb: 8
Update: records affected: 1



GetName: 54879 CZ-3B R/B

Hit Count: updated at: Mon, 27 Mar 2023 07:20:03 GMT